[TLELIST] Archives

 

Current TLEs

January 11th 2007 PDT

HST 1 20580U 90037B 07010.67313491 .00000439 00000-0 21329-4 0 7799 2 20580 028.4661 137.1921 0003819 221.3186 138.7114 15.00172805716280 ISS (ZARYA) 1 25544U 98067A 07011.52305973 .00012642 00000-0 79129-4 0 4209 2 25544 051.6316 193.4544 0023618 080.5609 320.7911 15.76914639466035 CXO 1 25867U 99040B 07009.00000000 +.00000316 +00000-0 +00000-0 0 00212 2 25867 060.9439 092.6979 6016152 286.8690 358.0958 00.37804305001653 ____________________________________________________________________ These 2-Line ...Continue Reading

Current TLEs

January 10th 2007 PDT

HST 1 20580U 90037B 07008.81034682 +.00000452 +00000-0 +22312-4 0 07905 2 20580 028.4660 149.3374 0003861 203.4296 156.6119 15.00171792716004 ISS (ZARYA) 1 25544U 98067A 07010.50934632 .00012350 00000-0 77497-4 0 4141 2 25544 051.6326 198.6827 0023610 076.6791 326.0845 15.76886586465872 CXO 1 25867U 99040B 07009.00000000 +.00000316 +00000-0 +00000-0 0 00212 2 25867 060.9439 092.6979 6016152 286.8690 358.0958 00.37804305001653 ____________________________________________________________________ These 2-Line ...Continue Reading

Current TLEs

January 9th 2007 PDT

HST 1 20580U 90037B 07006.81450184 +.00000439 +00000-0 +21275-4 0 07836 2 20580 028.4659 162.3500 0003845 183.2185 176.8382 15.00170510715701 ISS (ZARYA) 1 25544U 98067A 07009.37340718 .00013665 00000-0 85381-4 0 4095 2 25544 051.6331 204.5413 0023631 072.5315 357.4518 15.76861884465695 CXO 1 25867U 99040B 07009.00000000 +.00000316 +00000-0 +00000-0 0 00212 2 25867 060.9439 092.6979 6016152 286.8690 358.0958 00.37804305001653 ____________________________________________________________________ These 2-Line ...Continue Reading

Current TLEs

January 8th 2007 PDT

HST 1 20580U 90037B 07007.81242443 .00000458 00000-0 22790-4 0 7771 2 20580 028.4659 155.8445 0003854 193.4437 166.6052 15.00171244715851 ISS (ZARYA) 1 25544U 98067A 07008.05455170 .00017075 00000-0 10570-3 0 4038 2 25544 051.6328 211.3456 0023746 067.5016 070.7859 15.76836839465485 CXO 1 25867U 99040B 07003.70833333 +.00000222 +00000-0 +00000-0 0 00199 2 25867 060.9270 092.8009 6008930 287.0180 357.5778 00.37798454001633 ____________________________________________________________________ These 2-Line ...Continue Reading

Current TLEs

January 7th 2007 PDT

HST 1 20580U 90037B 07006.54838910 .00000426 00000-0 20241-4 0 7763 2 20580 028.4657 164.0866 0003852 181.9165 178.1407 15.00170217715666 ISS (ZARYA) 1 25544U 98067A 07007.47328688 .00019557 00000-0 12055-3 0 3997 2 25544 051.6324 214.3428 0023311 065.8764 010.6192 15.76826515465395 CXO 1 25867U 99040B 07003.70833333 +.00000222 +00000-0 +00000-0 0 00199 2 25867 060.9270 092.8009 6008930 287.0180 357.5778 00.37798454001633 ____________________________________________________________________ These 2-Line ...Continue Reading

Current TLEs

January 6th 2007 PDT

HST 1 20580U 90037B 07004.81865532 .00000406 00000-0 18717-4 0 7753 2 20580 028.4657 175.3632 0003827 163.5544 196.5169 15.00169143715408 ISS (ZARYA) 1 25544U 98067A 07005.19608993 .00022904 00000-0 14086-3 0 3844 2 25544 051.6336 226.0868 0023624 057.1578 044.2962 15.76743237465038 CXO 1 25867U 99040B 07003.70833333 +.00000222 +00000-0 +00000-0 0 00199 2 25867 060.9270 092.8009 6008930 287.0180 357.5778 00.37798454001633 ____________________________________________________________________ These 2-Line ...Continue Reading

Current TLEs

January 5th 2007 PDT

HST 1 20580U 90037B 07004.81865532 .00000406 00000-0 18717-4 0 7753 2 20580 028.4657 175.3632 0003827 163.5544 196.5169 15.00169143715408 ISS (ZARYA) 1 25544U 98067A 07004.81522880 .00023137 00000-0 14234-3 0 3824 2 25544 051.6336 228.0502 0023673 055.5770 042.5549 15.76725951464972 CXO 1 25867U 99040B 06363.41666667 +.00000352 +00000-0 +00000-0 0 00182 2 25867 060.8868 092.9355 6008030 287.1136 357.1580 00.37807561001618 ____________________________________________________________________ These 2-Line ...Continue Reading

Current TLEs

January 4th 2007 PDT

HST 1 20580U 90037B 07003.55461972 .00000377 00000-0 16453-4 0 7744 2 20580 028.4668 183.6139 0003842 150.1576 209.9234 15.00168436715213 ISS (ZARYA) 1 25544U 98067A 07004.49469251 .00019155 00000-0 11876-3 0 3790 2 25544 051.6352 229.6992 0023757 055.1110 022.3397 15.76696960464926 CXO 1 25867U 99040B 06363.41666667 +.00000352 +00000-0 +00000-0 0 00182 2 25867 060.8868 092.9355 6008030 287.1136 357.1580 00.37807561001618 ____________________________________________________________________ These 2-Line ...Continue Reading

Current TLEs

January 3rd 2007 PDT

HST 1 20580U 90037B 07001.95793973 .00000345 00000-0 13951-4 0 7739 2 20580 028.4669 194.0232 0003809 133.9242 226.1662 15.00167586714979 ISS (ZARYA) 1 25544U 98067A 07003.47961045 .00019665 00000-0 12204-3 0 3731 2 25544 051.6352 234.9372 0023695 051.4221 020.4719 15.76655271464769 CXO 1 25867U 99040B 06363.41666667 +.00000352 +00000-0 +00000-0 0 00182 2 25867 060.8868 092.9355 6008030 287.1136 357.1580 00.37807561001618 ____________________________________________________________________ These 2-Line ...Continue Reading

Current TLEs

January 2nd 2007 PDT

HST 1 20580U 90037B 07001.95793973 .00000345 00000-0 13951-4 0 7739 2 20580 028.4669 194.0232 0003809 133.9242 226.1662 15.00167586714979 ISS (ZARYA) 1 25544U 98067A 07002.53054912 .00015783 00000-0 98993-4 0 3673 2 25544 051.6364 239.8293 0023910 047.2734 034.1997 15.76609310464617 CXO 1 25867U 99040B 06363.41666667 +.00000352 +00000-0 +00000-0 0 00182 2 25867 060.8868 092.9355 6008030 287.1136 357.1580 00.37807561001618 ____________________________________________________________________ These 2-Line ...Continue Reading
  • This mailing list is a public mailing list - anyone may join or leave, at any time.
  • This mailing list is announce-only.

International Space Station (ISS) / Hubble Space Telescope (HST) / Chandra X-Ray Observatory Orbital Data via EMAIL

Privacy Policy:

Private list